Flag for Canada Weather past 2 weeks in Kamloops, British Columbia, Canada

Now
73 °F

Partly sunny.


Feels Like: 77 °F
Forecast: 53 / 74 °F
Wind: 13 mph from Southwest

Location: Kamloops

Current Time: Jul 25, 2014 at 4:15:08 PM

Latest Report: Jul 25, 2014 at 3:00 PM


Visibility: 40 mi

Pressure: 30.06 "Hg

Humidity: 38%

Dew point: 46 °F

Location of KamloopsLocation

Historic Weather in Kamloops — Graph

°F

Kamloops temperature yesterday

Maximum temperature yesterday: 64 °F (at 5:00 PM)
Minimum temperature yesterday: 55 °F (at 2:00 AM)
Average temperature yesterday: 59 °F

Past Weeks' High & Low Weather Summary

 TemperatureHumidityPressure
High104 °F (Jul 13, 5:00 PM)94% (Jul 23, 9:00 PM)30.15 "Hg (Jul 23, 9:00 PM)
Low48 °F (Jul 25, 5:00 AM)8% (Jul 13, 5:00 PM)29.57 "Hg (Jul 19, 4:00 PM)
Average75 °F44%29.90 "Hg
* Reported Jul 10 3:00 PM — Jul 25 3:00 PM, Kamloops, Weather by CustomWeather, © 2014

Note: Actual official high and low records may vary slightly from our data, if they occured in-between our weather recording intervals... More about our weather records

Advertising

Kamloops weather history for previous 24 hours

 ConditionsComfort  
Time TempWeatherWind HumidityBarometerVisibility
3:00 PM
Jul 25
73 °FPartly sunny.13 mph38%30.06 "Hg40 mi
2:00 PM73 °FBroken clouds.7 mph36%30.07 "Hg40 mi
1:00 PM72 °FPartly sunny.10 mph44%30.07 "Hg40 mi
12:00 PM68 °FBroken clouds.13 mph49%30.08 "Hg40 mi
11:00 AM66 °FScattered clouds.14 mph52%30.09 "Hg40 mi
10:00 AM61 °FPartly sunny.9 mph68%30.11 "Hg40 mi
9:00 AM57 °FPartly sunny.3 mph77%30.13 "Hg40 mi
8:00 AM55 °FPartly sunny.3 mph77%30.13 "Hg40 mi
7:00 AM54 °FPartly sunny.2 mph88%30.12 "Hg40 mi
6:00 AM52 °FPassing clouds.5 mph88%30.11 "Hg40 mi
5:00 AM48 °FPassing clouds.5 mph94%30.10 "Hg40 mi
4:00 AM54 °FPassing clouds.3 mph77%30.09 "Hg40 mi
3:00 AM52 °FClear.2 mph88%30.08 "Hg40 mi
2:00 AM52 °FClear.6 mph88%30.06 "Hg40 mi
1:00 AM55 °FClear.8 mph82%30.05 "Hg40 mi
12:00 AM57 °FPassing clouds.No wind72%30.03 "Hg40 mi
11:00 PM
Jul 24
57 °FPassing clouds.No wind77%30.00 "Hg40 mi
10:00 PM59 °FPassing clouds.5 mph77%29.99 "Hg40 mi
9:00 PM63 °FScattered clouds.3 mph68%29.96 "Hg40 mi
8:00 PM63 °FBroken clouds.8 mph68%29.95 "Hg40 mi
7:00 PM64 °FBroken clouds.7 mph60%29.95 "Hg40 mi
6:00 PM64 °FBroken clouds.8 mph60%29.96 "Hg40 mi
5:00 PM64 °FPartly sunny.8 mph60%29.97 "Hg40 mi
4:00 PM61 °FPartly sunny.8 mph72%29.99 "Hg40 mi
Weather by CustomWeather, © 2014

See weather overviewHow to use our weather pages